Vorticity
7 6 7 8 8 10 8 7 14 17 23 23 18 15 4 2 3 3 5 3 8 7 0 5 5 5 9 3 -2 3 8 4 3 5 6 7 2 4 6 2 4 5 3 4 5 5 5 5 5 5 5 4 4 4 4 5 5 5 4 5 5 5 5 5 6 5 6 6 4 6 8 15 11 -1 -2 3 7 7 6 7 9 9 9 9 9 9 10 9 7 5 6 7 6 6 5 5 8
7 7 6 8 9 8 9 10 10 9 12 15 20 21 13 8 10 8 3 2 6 8 5 5 4 5 2 -1 2 1 6 6 3 6 6 8 3 3 6 5 6 5 3 4 4 4 5 4 4 5 4 4 4 4 4 5 5 5 5 4 5 5 5 5 5 6 6 6 5 5 7 11 9 0 -4 -1 4 8 6 6 9 9 8 9 8 8 9 10 8 5 5 6 6 6 5 6 8
6 5 5 8 9 7 9 12 10 9 9 10 13 21 24 17 16 15 10 8 10 8 3 5 5 5 3 4 8 0 4 6 2 4 5 7 4 4 5 5 5 4 5 4 3 4 4 4 4 4 4 4 3 4 4 4 5 4 5 5 5 5 5 5 4 5 6 6 5 5 5 8 10 4 -1 -2 0 6 6 5 8 7 8 8 7 7 8 10 8 5 5 5 7 7 7 7 9
5 5 6 7 7 7 8 11 10 11 11 10 9 14 21 15 10 13 12 8 10 9 7 12 7 4 6 7 8 3 5 6 4 4 5 7 4 6 6 5 4 3 4 3 4 4 3 3 3 3 3 4 3 4 4 4 4 4 5 5 5 5 5 5 4 5 5 6 6 6 5 5 8 6 4 2 -1 4 6 4 7 7 7 8 7 7 7 8 7 5 5 6 7 8 9 8 9
6 4 4 5 6 8 9 10 10 10 10 9 8 10 13 11 7 10 11 7 8 9 11 14 5 3 6 6 6 4 6 5 4 4 4 7 5 5 7 7 4 3 3 3 5 4 4 4 3 4 3 4 4 4 4 4 4 4 4 4 4 4 5 5 5 5 5 5 6 6 6 4 6 5 7 9 2 3 6 3 5 7 6 7 7 6 6 6 5 6 5 5 7 8 8 9 10
7 7 6 6 6 8 9 8 7 7 8 8 8 8 9 9 7 8 12 10 8 8 7 6 3 4 3 5 6 4 7 5 4 4 5 6 5 6 7 6 4 3 3 4 6 5 5 5 4 4 4 4 4 4 4 4 4 4 4 4 5 4 4 5 5 5 4 5 6 6 6 5 4 4 9 13 5 2 6 4 4 7 7 7 7 5 5 5 5 6 5 5 7 7 7 9 9
6 8 8 7 5 6 7 7 6 6 7 7 7 7 8 8 7 6 8 11 10 9 7 4 3 5 6 6 7 6 6 6 8 11 9 8 6 6 5 4 5 5 4 5 5 5 5 5 5 5 5 5 5 5 4 5 5 5 5 5 5 5 4 5 5 4 4 4 6 6 5 5 4 4 9 11 4 2 5 5 4 6 7 7 7 6 5 4 5 5 6 6 8 9 7 9 8
4 6 6 8 5 5 7 7 6 5 6 7 6 7 8 8 9 8 8 11 10 11 10 8 5 5 9 6 6 9 7 6 8 8 8 9 7 5 6 5 5 5 4 5 4 4 4 4 4 5 5 5 5 5 4 5 5 5 5 5 4 5 5 5 5 4 4 5 5 5 5 6 4 4 7 7 1 2 5 4 4 5 6 7 7 6 5 5 4 5 7 6 9 10 7 9 8
3 3 4 8 5 5 6 7 7 7 7 9 7 7 10 10 10 9 8 8 7 10 11 9 6 4 5 5 10 14 12 9 4 3 5 8 7 4 5 5 4 4 4 4 5 4 4 4 4 4 4 5 5 4 5 5 5 5 5 5 5 5 5 5 6 5 4 5 5 5 5 5 5 4 6 6 1 1 5 4 3 5 5 6 6 5 5 5 4 5 6 7 8 9 9 9 8
0 1 4 5 4 7 7 6 9 9 10 12 10 7 8 9 12 11 9 8 8 11 13 11 7 5 4 4 8 13 18 15 7 7 6 4 7 4 2 4 4 4 4 3 4 4 4 5 4 4 5 5 5 5 6 5 5 6 5 5 5 5 5 5 5 6 5 5 6 5 5 5 5 4 5 6 5 3 4 5 3 4 6 5 5 4 4 6 5 5 5 7 7 7 8 9 9
0 -1 1 2 3 7 8 8 9 9 11 12 11 10 6 7 11 12 11 9 11 10 13 13 8 5 5 6 7 11 16 7 -0 8 9 6 6 4 2 4 5 3 4 5 4 5 5 5 5 5 5 5 6 6 6 6 6 6 6 6 6 6 5 5 5 6 6 6 5 4 5 5 5 5 5 5 7 7 4 6 5 4 6 6 5 4 5 6 6 5 4 6 8 8 7 8 10
8 1 -4 1 5 6 7 7 7 6 7 10 12 12 10 9 7 9 11 11 13 11 12 14 9 6 6 8 8 10 11 4 2 9 13 8 2 3 5 5 5 5 6 6 5 5 5 6 6 6 6 6 6 6 6 6 6 6 6 6 6 6 5 5 5 6 6 5 5 4 5 5 5 5 6 5 5 8 6 5 7 5 5 6 5 5 5 7 8 6 5 5 7 9 8 8 9
10 5 -3 2 4 6 8 4 4 5 5 8 10 11 11 13 9 8 7 9 12 11 12 10 9 10 9 10 10 15 17 14 14 11 9 5 1 4 7 6 5 7 8 6 6 5 5 6 7 7 6 7 6 6 6 5 5 5 5 5 5 5 5 5 5 6 6 5 5 4 5 5 6 5 6 6 5 7 6 5 7 5 4 5 6 5 5 6 9 9 6 5 5 6 7 8 9
4 4 0 2 2 6 9 4 5 7 7 7 8 9 9 12 12 10 8 8 9 8 9 6 9 11 8 10 10 15 14 11 11 6 2 -1 3 6 4 8 8 7 7 5 6 5 5 6 6 6 6 6 6 6 5 5 5 5 5 5 4 4 5 6 6 6 6 6 6 5 5 5 6 6 5 6 7 6 5 5 6 5 4 5 6 5 4 4 7 9 7 7 5 3 3 4 7
-0 -2 2 3 -1 4 7 7 8 7 10 8 6 6 9 13 11 10 11 13 10 11 11 6 14 13 7 10 9 11 9 10 10 8 8 2 4 6 5 9 9 7 7 6 6 5 6 5 5 5 5 5 5 5 5 4 4 5 5 4 4 4 5 6 6 5 6 7 6 6 5 6 6 5 3 3 5 5 5 7 7 5 5 5 6 5 4 4 5 6 7 8 8 6 4 3 4
-2 -4 5 4 0 4 5 10 10 4 10 11 7 6 11 14 11 13 15 18 14 9 12 11 15 16 11 9 11 13 8 6 2 2 9 7 4 4 7 8 7 8 6 6 6 5 5 5 6 5 6 6 5 5 4 5 5 5 5 5 5 4 4 6 6 5 5 6 7 7 6 6 7 5 1 -1 3 4 2 6 8 6 5 6 6 6 5 4 4 5 6 7 9 8 7 8 7
0 3 10 6 5 9 4 7 12 6 6 10 10 9 11 9 10 18 16 16 14 9 14 13 12 19 18 8 8 11 5 6 5 4 10 11 9 4 5 6 7 8 5 5 6 5 5 5 6 5 6 6 5 5 5 5 5 6 6 5 5 4 4 4 6 6 4 5 6 7 7 7 8 7 6 3 5 8 5 4 6 5 3 4 4 6 6 4 3 3 3 5 8 8 7 9 9
-3 4 10 7 6 11 7 5 13 11 5 8 11 9 11 10 10 18 16 10 12 19 17 8 14 23 19 6 5 9 4 9 11 9 13 13 12 6 3 5 6 7 5 5 4 3 5 4 4 4 5 5 5 6 5 6 5 5 5 5 5 5 6 4 5 8 6 4 5 6 6 7 8 6 6 5 4 9 11 7 5 5 3 3 3 4 5 3 2 1 0 3 5 5 5 7 8
-3 3 10 10 6 12 12 6 11 13 9 8 7 8 10 7 8 11 15 16 14 21 18 21 39 27 13 12 10 13 6 7 12 10 12 11 9 7 4 4 3 4 6 5 4 3 3 4 4 4 4 5 5 5 4 5 5 5 5 6 5 6 9 6 6 8 6 4 4 6 6 6 7 4 4 5 3 4 8 7 4 5 6 6 6 5 5 3 3 2 -0 3 2 1 3 6 7
4 3 7 6 3 9 9 4 11 16 16 9 2 6 9 2 4 6 11 21 17 16 17 28 47 27 13 18 14 16 12 5 8 7 8 8 7 7 9 12 8 4 3 2 3 2 2 3 3 4 4 4 4 4 4 4 4 5 4 5 5 6 8 6 6 7 5 5 5 6 7 5 5 5 5 5 4 3 5 6 3 2 6 10 10 7 5 5 4 2 2 4 -2 -6 -1 5 7
5 1 -3 -4 0 7 3 -1 5 12 15 13 8 4 8 9 7 7 10 18 14 14 18 20 32 29 16 15 14 18 15 8 9 9 9 9 11 9 10 17 16 10 7 7 5 4 8 7 4 5 5 5 7 6 5 5 4 5 5 5 5 5 6 6 5 5 5 5 5 5 7 5 4 6 6 7 5 5 6 7 4 0 2 8 10 7 6 6 4 2 5 4 -9 -9 1 4 5
1 3 -2 -7 -1 8 4 -4 -7 -2 5 14 22 11 5 13 11 8 11 14 9 9 16 19 26 25 11 12 22 21 15 13 11 12 12 11 13 12 9 12 14 12 11 12 9 8 13 11 8 10 9 7 9 9 8 7 7 8 8 5 4 4 4 6 5 5 6 5 5 6 7 6 4 3 5 7 6 6 7 7 6 5 5 9 9 7 7 6 4 2 4 2 -5 5 14 7 5
-7 -2 6 0 -4 5 4 -3 -9 -4 -0 2 16 14 2 7 14 11 10 11 11 9 10 16 22 17 3 1 15 21 19 15 8 8 9 6 7 10 10 9 9 10 11 13 10 8 13 11 8 11 9 5 5 7 6 7 10 10 8 4 4 6 6 7 6 6 5 5 6 6 7 7 5 4 4 5 8 9 7 5 6 6 9 14 12 8 7 5 4 3 3 3 4 14 17 8 7
-6 -5 8 3 -3 4 2 -3 -2 -2 -4 -3 5 13 14 16 17 11 8 9 10 13 11 10 14 14 10 5 9 17 16 11 9 11 13 11 7 6 9 9 10 12 11 14 14 10 12 12 10 10 10 7 9 10 6 5 8 7 4 4 6 7 6 6 6 6 6 7 7 7 7 6 5 7 5 4 7 5 4 9 10 5 6 14 15 8 5 3 3 4 3 3 6 11 11 6 7
-4 -1 0 -6 -8 -2 0 -2 3 0 -7 2 4 6 19 23 18 10 8 9 6 10 13 11 10 10 12 12 11 10 9 10 12 17 22 20 10 7 11 8 10 12 8 14 20 16 14 15 13 13 14 12 13 13 10 8 7 7 6 6 7 7 6 6 7 8 10 11 11 9 6 5 8 9 8 9 9 2 1 8 10 6 5 11 14 8 4 2 -1 -2 -0 4 8 9 7 4 5
-6 2 8 3 -7 -10 -1 1 2 5 -4 1 4 -2 8 15 12 12 9 7 7 8 11 11 11 9 7 8 7 4 4 9 13 15 21 23 20 22 20 8 6 10 9 14 19 15 13 14 12 13 16 17 16 15 16 14 12 14 10 7 8 9 8 7 7 6 8 10 11 9 5 6 9 8 11 16 17 11 6 8 8 3 2 7 11 9 7 6 2 -2 0 7 7 6 6 4 5
-7 -3 9 11 7 -1 -2 -1 -0 6 -1 -4 3 -5 2 16 12 13 14 7 6 8 8 10 11 9 8 8 7 4 4 9 13 8 7 14 18 21 17 8 8 9 8 8 9 12 15 15 13 12 14 18 18 16 17 17 15 15 11 8 7 9 12 11 9 8 7 7 7 9 8 9 8 5 9 12 13 14 7 10 15 9 8 10 7 5 5 7 11 10 8 7 3 4 6 3 4
1 -1 0 5 14 12 1 1 1 5 2 -4 2 -1 12 32 20 13 17 8 4 6 7 9 9 8 9 9 7 10 9 4 6 4 1 6 9 10 12 12 12 10 8 7 7 11 15 18 17 11 8 11 12 11 13 14 14 14 12 11 10 12 15 13 12 10 9 10 9 11 11 10 8 8 12 7 7 15 9 8 16 16 13 11 6 4 4 6 13 14 11 7 3 5 6 3 4
-2 -2 -4 2 11 14 6 6 5 4 2 -3 2 2 8 22 22 21 20 11 5 4 7 8 7 7 9 9 8 12 6 -2 3 9 6 6 6 7 12 13 10 10 10 11 11 9 12 17 18 17 13 10 9 9 9 9 11 13 12 11 10 11 11 10 11 10 10 13 13 13 11 9 7 8 13 8 3 12 14 9 12 16 12 9 9 10 10 11 13 11 8 6 4 6 4 2 5
-3 3 -1 1 5 8 5 6 12 8 0 -1 5 4 1 7 21 23 16 14 9 2 4 6 5 5 7 7 7 10 7 4 8 12 11 9 7 6 8 7 4 6 8 9 8 9 15 14 9 16 18 13 11 10 10 10 10 11 9 7 5 6 7 9 12 11 11 10 9 10 10 12 12 12 13 9 4 9 15 10 6 10 10 8 10 12 14 11 11 10 5 7 9 6 4 2 3
-5 3 -0 -3 -0 3 0 4 15 11 -1 1 5 4 1 1 13 14 10 17 11 3 4 3 3 5 6 6 4 8 10 10 8 9 11 9 7 6 4 3 2 5 7 6 5 7 12 11 4 7 11 12 10 7 9 12 10 9 8 7 6 6 7 10 10 10 11 10 9 10 11 13 14 12 9 6 5 8 13 11 5 6 6 6 7 12 17 12 10 10 5 9 12 6 5 5 4
2 1 1 -4 -5 -3 -0 7 15 9 -2 2 5 3 0 -3 7 13 12 16 11 6 6 2 5 5 4 6 6 8 9 8 7 7 6 5 5 5 4 4 4 5 5 4 6 7 7 6 6 6 7 13 14 7 6 8 8 9 9 10 11 10 10 9 7 9 13 13 13 15 16 17 15 13 11 11 10 10 15 14 8 7 8 9 10 14 19 15 12 11 6 6 6 4 6 6 7
-1 -7 -0 -3 -5 0 8 15 13 4 -1 3 1 1 3 -4 3 19 19 17 16 13 8 2 4 8 5 4 7 9 10 7 6 5 4 5 6 5 5 4 4 4 4 5 7 8 9 6 5 8 11 13 16 12 6 4 6 9 11 13 14 11 13 15 11 13 16 15 13 12 15 18 17 14 12 14 15 14 16 14 9 8 8 8 11 15 16 12 9 10 8 5 4 5 6 5 7
9 8 12 7 5 10 17 18 8 -0 -0 2 1 7 10 -2 5 28 24 13 15 15 10 3 1 8 8 5 7 8 10 8 4 5 4 5 6 6 6 5 7 6 6 8 6 7 9 5 4 9 12 11 11 11 8 6 6 10 12 13 11 5 12 19 15 14 12 15 13 7 14 18 15 14 13 17 20 16 13 11 10 7 6 6 7 12 13 10 8 8 10 10 9 9 7 7 8
15 14 4 2 3 7 20 19 3 -1 -1 -2 2 9 9 4 11 20 5 -7 7 12 7 5 4 9 10 5 6 6 8 11 8 6 4 5 5 6 9 9 9 7 9 9 5 9 8 3 8 11 10 9 8 11 13 9 6 11 12 10 7 3 11 16 16 17 9 11 14 7 13 14 11 15 13 12 17 16 13 12 12 9 8 9 7 7 8 10 11 11 11 11 12 12 13 12 10
-1 2 -6 4 3 3 24 17 -3 -1 6 5 6 8 8 11 11 5 -5 -9 9 16 4 5 11 13 13 8 6 5 6 10 10 7 3 5 5 4 9 12 10 7 8 7 4 9 6 3 12 12 9 9 9 11 12 8 6 9 10 12 11 7 12 13 14 23 13 7 14 12 13 11 9 16 15 12 13 13 13 14 13 13 13 12 11 9 6 7 11 11 10 9 10 12 15 16 11
-16 -4 -6 8 8 4 16 7 -5 1 5 5 5 8 13 13 1 -5 5 5 8 12 2 2 8 10 14 15 11 6 6 7 8 7 3 4 5 4 10 12 8 4 2 3 4 8 5 6 11 9 9 10 10 10 7 6 6 6 8 12 12 3 5 8 6 14 12 6 8 10 14 14 10 13 15 15 13 12 13 12 10 11 15 17 16 14 11 8 8 7 6 8 10 11 12 13 11
-16 -4 -6 11 17 2 1 -3 -4 -1 -5 -4 1 12 17 7 -9 -9 11 16 4 4 4 4 8 7 9 15 14 5 5 6 3 5 4 5 5 5 18 18 7 6 7 7 8 5 4 8 9 8 9 8 9 8 4 5 5 6 8 8 10 5 2 6 7 8 9 9 6 3 10 16 13 12 13 14 13 11 13 15 14 12 16 19 17 15 14 12 10 7 8 10 11 11 10 11 12
-9 5 4 13 9 -12 -6 -3 -8 -8 -10 -8 1 18 18 -6 -14 -1 16 15 0 1 9 10 9 7 2 9 15 8 8 7 2 4 3 7 7 3 14 18 9 9 8 7 11 7 5 8 7 6 7 5 7 6 4 6 5 7 8 6 9 9 5 5 9 9 7 9 9 4 8 12 10 10 10 9 7 6 6 9 13 15 17 19 17 16 14 12 10 9 9 11 10 9 9 12 16
-14 10 9 8 9 -4 -1 -1 -4 -3 -3 4 12 18 11 -9 -9 8 16 5 -6 0 10 9 10 11 4 4 12 12 9 6 5 6 1 5 7 1 5 9 10 12 7 8 14 10 8 9 5 4 3 2 3 4 5 6 5 6 6 6 8 8 7 3 2 4 3 7 8 6 13 11 4 9 12 9 9 7 3 1 4 9 13 17 20 18 14 12 11 9 9 10 10 9 10 13 17
-6 6 -3 -8 0 0 -2 -4 -3 2 11 17 16 11 5 0 0 2 7 4 -7 -2 3 -2 1 13 13 6 11 16 9 4 5 5 5 7 7 5 2 2 8 9 5 9 11 9 11 9 6 6 5 3 2 2 3 3 3 5 4 6 7 5 7 3 -1 0 2 4 2 2 12 9 -2 5 11 13 16 13 7 3 3 5 6 11 18 18 15 13 14 13 12 11 9 9 11 12 14
2 -4 -8 -13 -8 1 4 2 -0 10 22 10 1 10 11 11 9 -3 2 5 -8 -4 -0 -7 -2 11 15 10 9 12 10 8 7 6 7 4 8 17 11 8 19 13 3 6 5 6 12 10 7 10 10 8 7 5 5 6 5 5 5 5 5 5 5 4 2 3 2 4 3 1 7 7 -0 0 5 7 9 11 10 7 6 7 4 5 11 13 12 12 15 15 14 14 12 9 9 11 10
2 4 13 9 17 31 27 25 24 21 18 -2 -7 12 17 17 12 -1 -0 -1 -9 -4 -0 4 16 16 12 11 9 9 8 7 6 7 8 1 3 20 23 22 23 10 7 16 11 6 10 11 10 14 15 11 10 8 7 10 10 8 8 7 6 6 5 3 3 2 3 5 3 3 9 9 2 1 7 7 2 5 7 4 8 11 8 9 10 8 7 8 11 12 12 14 15 14 11 11 10
2 7 18 13 13 17 11 16 18 7 3 -0 -8 -5 9 14 6 4 10 7 -1 -4 1 15 17 8 10 11 9 11 7 3 8 7 5 4 -0 7 26 33 18 -1 1 12 10 6 10 10 6 9 12 9 8 9 8 10 10 9 10 10 9 10 8 6 5 4 4 3 0 3 9 8 0 -0 8 9 4 6 6 4 9 9 7 10 9 7 6 5 5 7 10 10 13 17 17 15 11
5 -7 -4 -1 -5 -9 -6 1 1 -3 -1 3 -5 -9 11 16 7 15 17 4 -3 -3 12 23 7 -1 12 10 2 7 5 10 32 28 4 1 3 4 22 28 11 -3 -7 -4 2 3 8 11 3 2 6 6 7 8 8 9 8 8 8 8 9 10 11 10 9 9 8 8 6 5 7 7 4 3 6 7 5 7 7 5 6 5 5 8 8 8 7 6 6 6 7 6 7 11 16 19 16
16 -0 -10 -9 -1 1 0 5 12 15 7 -0 -1 -1 6 7 3 10 8 -2 -0 9 20 17 3 2 11 11 6 8 10 17 46 50 14 -1 4 4 15 18 2 -5 -7 -2 7 3 5 11 6 4 6 5 7 5 6 7 7 8 8 8 9 8 9 9 9 10 10 11 11 9 8 8 8 7 6 7 6 6 6 6 6 5 7 7 7 9 9 8 9 8 6 5 5 6 9 15 18
22 20 17 4 10 23 19 14 14 19 18 6 3 3 -2 -3 -1 0 3 5 11 18 11 1 6 11 8 11 9 7 13 15 29 41 20 8 13 11 24 30 3 -9 -0 8 12 5 3 6 2 2 4 3 5 4 3 4 4 6 7 8 9 8 8 8 8 10 10 10 9 8 10 9 9 9 9 9 8 8 7 7 7 6 7 7 6 7 9 9 10 9 9 8 7 6 5 8 12
11 13 17 -6 -9 9 18 22 11 7 15 3 -1 8 1 -4 -2 -7 -6 3 9 12 4 2 12 9 2 9 6 4 14 11 14 27 20 14 18 12 20 26 -2 -13 3 8 8 8 4 6 5 3 4 3 5 5 4 4 2 4 5 6 8 9 9 8 7 8 9 10 10 8 8 8 9 9 8 9 9 9 8 8 8 8 7 7 6 6 8 8 8 8 9 10 10 8 6 6 6
2 4 1 -11 -6 -8 -12 7 12 5 10 2 0 8 -2 -4 5 4 2 6 7 2 -2 6 9 2 4 10 7 9 14 10 8 20 21 14 16 8 0 6 -3 -10 3 7 5 6 5 6 7 5 4 3 4 6 6 6 5 4 5 6 6 7 8 8 7 6 5 6 6 6 6 5 6 5 5 6 6 6 7 7 7 7 7 7 7 7 7 8 8 7 6 8 9 9 9 9 7
17 15 2 -0 14 9 -4 6 9 2 1 -0 1 2 -6 -1 8 8 9 8 3 -2 -1 5 4 5 10 7 8 15 14 10 8 13 15 8 20 30 15 10 1 -14 -1 14 9 4 5 7 7 4 3 1 2 6 6 7 8 7 8 8 8 7 7 8 8 6 5 4 3 4 3 3 3 3 4 4 4 4 5 5 5 5 6 5 5 6 6 6 7 8 7 6 6 6 8 10 10
30 28 14 2 2 3 6 7 1 -2 -1 -0 3 -0 -4 -0 -2 -4 5 7 2 2 6 9 7 6 7 4 9 17 13 8 6 10 11 3 18 43 38 20 -5 -22 -3 19 14 5 3 6 8 6 4 3 3 4 6 8 10 9 9 8 8 8 7 8 8 8 6 4 3 2 2 2 2 2 3 3 4 4 4 5 5 5 5 4 4 4 4 4 5 6 8 8 7 6 6 7 9
8 11 5 2 -5 -12 -6 -1 -1 0 -2 -1 4 4 2 2 -3 -2 6 6 2 5 9 11 10 7 9 10 10 11 10 6 4 8 11 9 14 27 25 9 -8 -9 6 17 15 7 -2 0 6 4 4 7 5 4 6 9 9 10 10 8 7 8 8 8 8 9 9 8 6 4 3 2 1 2 3 3 4 4 5 5 5 6 6 6 6 5 4 4 4 4 5 6 7 7 7 8 8
15 6 -4 2 -1 -10 -9 -5 -2 0 1 6 12 13 10 4 1 2 3 0 0 6 8 8 11 12 13 14 10 7 7 5 5 6 6 8 9 11 11 7 5 10 12 11 14 11 3 6 8 2 -1 3 7 7 7 6 4 5 7 7 6 5 4 5 6 6 7 8 8 7 6 5 4 3 3 3 3 3 4 4 3 5 6 6 7 6 6 6 5 5 5 5 5 4 5 7 8
24 12 5 4 2 6 12 10 9 12 15 16 13 11 10 5 -1 -3 -0 3 4 6 8 8 10 10 8 7 8 8 7 5 6 8 8 9 8 8 8 9 10 10 10 13 15 12 9 11 12 10 6 2 5 8 6 5 4 3 5 5 3 2 1 1 2 2 3 4 4 5 5 5 5 5 4 4 4 3 3 2 2 2 3 4 6 6 5 4 4 4 4 5 5 5 4 4 6
9 14 19 15 11 11 11 9 9 11 12 8 3 4 10 11 4 2 6 6 1 3 9 9 5 4 4 6 10 10 8 8 9 10 11 10 9 9 8 7 8 7 8 10 10 10 10 9 11 16 17 12 6 2 0 4 6 6 5 4 2 1 0 1 2 3 3 3 3 3 3 4 4 4 4 4 4 4 4 3 3 3 3 4 5 6 5 4 4 4 4 5 5 5 5 4 4
5 10 11 16 25 16 4 3 -1 -2 3 1 -3 1 12 19 14 8 4 -2 -1 11 15 10 5 6 9 11 13 11 9 11 13 12 12 12 12 10 8 7 7 5 6 8 9 10 9 8 8 10 14 15 9 1 -3 1 6 7 6 4 3 2 2 3 4 4 5 6 6 7 6 6 6 6 6 6 6 6 6 5 5 5 5 5 5 6 6 5 5 5 6 6 7 6 6 6 5
3 -0 -6 -1 13 8 1 5 2 1 3 -1 -2 4 9 10 7 1 -2 -1 7 14 11 7 8 12 14 11 11 13 12 13 14 12 10 12 12 11 10 9 7 6 7 9 10 7 5 7 7 6 7 7 5 3 2 4 5 5 4 4 4 4 5 5 5 6 7 7 8 9 10 10 9 9 8 8 9 9 9 9 8 8 7 6 6 6 6 6 6 6 6 6 8 8 7 7 7
-8 -0 6 1 1 2 -1 -1 2 5 5 0 2 8 6 1 -1 2 5 8 11 12 10 9 11 13 11 8 13 20 18 12 10 9 11 14 14 13 13 9 6 6 6 6 5 4 4 5 5 4 5 4 5 6 6 6 6 5 6 6 6 7 7 6 7 8 9 9 8 8 8 9 9 9 8 8 7 7 7 7 7 8 8 7 7 7 7 7 6 6 5 5 6 7 7 8 8
Height
5918 5918 5917 5916 5915 5914 5913 5912 5912 5911 5910 5910 5910 5910 5910 5910 5910 5911 5910 5910 5909 5909 5909 5911 5912 5912 5913 5912 5911 5912 5913 5914 5913 5914 5914 5913 5913 5913 5913 5914 5914 5914 5914 5914 5915 5915 5916 5915 5916 5916 5916 5917 5917 5917 5917 5917 5917 5917 5917 5918 5917 5917 5916 5916 5916 5916 5915 5915 5914 5913 5911 5910 5909 5909 5907 5906 5904 5902 5901 5899 5898 5897 5896 5895 5894 5894 5893 5892 5891 5890 5890 5889 5888 5888 5887 5887 5887
5919 5918 5918 5917 5916 5915 5915 5914 5913 5911 5910 5911 5910 5910 5910 5910 5910 5910 5910 5910 5910 5910 5910 5910 5911 5911 5912 5911 5911 5912 5913 5913 5913 5913 5913 5913 5913 5913 5914 5914 5914 5914 5914 5914 5915 5915 5916 5916 5916 5916 5917 5917 5917 5918 5917 5917 5917 5918 5918 5918 5917 5917 5917 5916 5916 5916 5915 5915 5914 5913 5912 5911 5910 5909 5908 5906 5905 5903 5901 5900 5898 5897 5896 5895 5895 5894 5894 5893 5892 5891 5890 5889 5888 5887 5887 5887 5887
5919 5919 5919 5919 5918 5917 5916 5916 5915 5913 5912 5912 5911 5911 5910 5910 5910 5910 5910 5910 5910 5910 5910 5910 5910 5910 5911 5911 5911 5912 5913 5913 5913 5913 5913 5913 5914 5914 5914 5914 5914 5914 5914 5915 5915 5915 5915 5916 5916 5917 5917 5917 5918 5918 5918 5918 5918 5918 5918 5918 5917 5917 5917 5916 5916 5916 5916 5915 5914 5913 5912 5911 5910 5909 5908 5907 5905 5903 5902 5900 5899 5897 5896 5895 5895 5894 5894 5893 5892 5891 5890 5889 5888 5887 5886 5886 5887
5920 5921 5921 5921 5920 5919 5918 5918 5916 5915 5914 5913 5911 5911 5910 5910 5910 5910 5910 5910 5910 5910 5910 5910 5910 5911 5911 5912 5912 5912 5912 5913 5913 5913 5913 5913 5914 5914 5914 5914 5914 5914 5914 5915 5915 5915 5915 5916 5916 5917 5917 5918 5918 5918 5918 5918 5918 5918 5918 5918 5917 5917 5917 5916 5916 5916 5916 5915 5914 5914 5913 5912 5910 5909 5908 5907 5905 5904 5902 5901 5899 5898 5897 5896 5895 5895 5894 5894 5893 5891 5890 5889 5888 5887 5886 5886 5886
5923 5923 5923 5923 5922 5921 5920 5918 5916 5915 5914 5913 5912 5911 5910 5911 5911 5910 5910 5910 5910 5910 5910 5910 5910 5911 5911 5911 5911 5912 5912 5912 5913 5913 5913 5913 5913 5914 5914 5914 5914 5914 5914 5915 5915 5915 5915 5916 5916 5917 5917 5918 5918 5918 5918 5918 5918 5918 5918 5917 5917 5917 5917 5917 5916 5916 5916 5915 5915 5914 5913 5912 5910 5909 5908 5907 5906 5904 5903 5901 5899 5898 5897 5896 5895 5895 5894 5893 5892 5891 5890 5889 5888 5887 5886 5886 5886
5926 5926 5925 5924 5923 5922 5921 5919 5917 5916 5914 5913 5912 5912 5911 5911 5911 5910 5910 5910 5910 5910 5910 5910 5910 5910 5911 5910 5910 5911 5911 5911 5912 5912 5912 5913 5913 5913 5914 5914 5914 5914 5914 5914 5915 5915 5915 5916 5916 5917 5917 5918 5918 5918 5918 5918 5918 5918 5918 5917 5917 5917 5917 5916 5916 5916 5916 5915 5915 5914 5913 5912 5910 5909 5908 5907 5906 5904 5903 5901 5900 5898 5897 5896 5895 5895 5894 5893 5892 5891 5890 5889 5888 5887 5886 5886 5886
5929 5929 5927 5925 5923 5923 5921 5919 5917 5916 5914 5914 5913 5912 5912 5911 5911 5910 5910 5910 5910 5910 5910 5910 5910 5910 5910 5910 5909 5909 5909 5909 5910 5911 5911 5912 5912 5913 5913 5914 5914 5914 5914 5914 5914 5915 5915 5916 5916 5917 5917 5917 5918 5918 5918 5918 5918 5918 5918 5917 5917 5917 5917 5916 5916 5915 5915 5915 5915 5914 5913 5912 5910 5909 5908 5907 5905 5904 5903 5902 5900 5898 5897 5897 5896 5895 5894 5893 5892 5891 5890 5889 5888 5887 5887 5886 5886
5931 5930 5928 5926 5924 5923 5922 5920 5918 5917 5916 5915 5914 5913 5912 5911 5911 5910 5910 5909 5909 5909 5909 5909 5909 5909 5909 5908 5907 5906 5906 5906 5907 5908 5910 5911 5911 5912 5913 5913 5914 5914 5914 5914 5914 5914 5915 5915 5916 5917 5917 5917 5918 5918 5918 5918 5918 5918 5918 5918 5917 5917 5916 5916 5916 5915 5915 5915 5914 5914 5913 5912 5911 5909 5908 5906 5905 5904 5903 5902 5900 5899 5898 5897 5896 5895 5894 5893 5892 5892 5890 5889 5889 5888 5887 5887 5886
5931 5930 5929 5927 5925 5925 5923 5921 5920 5918 5917 5917 5916 5914 5914 5913 5912 5911 5911 5910 5909 5909 5909 5908 5908 5908 5908 5907 5907 5906 5907 5905 5904 5905 5907 5909 5910 5911 5912 5913 5913 5913 5914 5914 5914 5915 5915 5915 5916 5916 5917 5917 5917 5918 5918 5918 5918 5918 5918 5917 5917 5916 5916 5916 5915 5915 5915 5914 5914 5913 5912 5911 5910 5909 5908 5906 5905 5904 5903 5901 5900 5899 5898 5897 5896 5895 5895 5894 5893 5892 5891 5890 5889 5888 5888 5887 5887
5931 5930 5929 5927 5926 5927 5925 5923 5922 5920 5919 5918 5917 5916 5916 5915 5914 5913 5912 5911 5910 5909 5908 5908 5907 5907 5907 5907 5908 5909 5910 5909 5906 5904 5905 5907 5909 5910 5911 5912 5913 5913 5913 5913 5914 5914 5915 5915 5916 5916 5916 5917 5917 5917 5917 5917 5917 5917 5917 5917 5917 5916 5916 5915 5915 5915 5914 5914 5913 5912 5911 5911 5910 5909 5908 5906 5905 5904 5903 5901 5900 5899 5898 5897 5896 5895 5895 5894 5893 5892 5892 5891 5890 5889 5888 5888 5887
5931 5929 5927 5928 5928 5927 5926 5924 5923 5922 5921 5920 5919 5918 5917 5917 5916 5915 5914 5913 5912 5910 5909 5907 5906 5907 5907 5906 5907 5907 5908 5910 5910 5908 5907 5907 5907 5909 5911 5912 5913 5913 5913 5913 5913 5914 5914 5915 5916 5916 5916 5916 5917 5917 5917 5917 5917 5917 5917 5917 5916 5916 5915 5915 5914 5914 5914 5913 5913 5912 5911 5910 5909 5908 5907 5906 5905 5904 5903 5901 5900 5899 5898 5897 5896 5895 5895 5894 5893 5892 5892 5891 5891 5890 5889 5889 5888
5930 5928 5926 5929 5929 5928 5927 5926 5924 5923 5923 5922 5921 5920 5919 5918 5917 5916 5914 5913 5912 5911 5909 5907 5906 5907 5907 5906 5906 5906 5907 5907 5909 5910 5911 5910 5907 5908 5910 5912 5913 5913 5913 5913 5913 5914 5914 5915 5915 5916 5916 5916 5916 5916 5916 5916 5916 5916 5916 5916 5916 5915 5915 5914 5914 5914 5913 5913 5912 5911 5910 5909 5908 5907 5907 5906 5905 5904 5903 5901 5900 5899 5898 5897 5896 5895 5895 5894 5893 5893 5892 5891 5891 5891 5890 5890 5889
5930 5927 5927 5931 5931 5929 5929 5927 5925 5924 5924 5923 5922 5921 5920 5918 5917 5916 5915 5914 5912 5911 5909 5908 5907 5907 5906 5906 5906 5907 5908 5907 5907 5909 5911 5911 5908 5908 5910 5912 5913 5913 5913 5913 5913 5914 5914 5915 5915 5916 5916 5916 5916 5916 5916 5916 5916 5915 5915 5915 5915 5915 5914 5914 5913 5913 5913 5912 5911 5910 5910 5909 5908 5907 5906 5905 5904 5903 5902 5901 5900 5899 5898 5897 5897 5896 5895 5895 5894 5893 5893 5892 5891 5891 5890 5890 5890
5932 5929 5931 5934 5933 5932 5931 5929 5927 5927 5926 5924 5923 5922 5920 5919 5918 5917 5915 5914 5912 5911 5910 5910 5909 5908 5907 5906 5906 5907 5908 5908 5907 5908 5910 5910 5909 5910 5911 5912 5913 5913 5913 5913 5913 5914 5914 5914 5915 5915 5915 5915 5915 5915 5915 5915 5915 5915 5915 5914 5914 5914 5914 5914 5913 5913 5912 5912 5911 5910 5909 5908 5907 5906 5905 5904 5903 5903 5902 5901 5900 5899 5898 5897 5897 5896 5896 5895 5895 5894 5894 5893 5892 5891 5891 5890 5890
5934 5932 5936 5938 5936 5935 5933 5931 5930 5928 5927 5925 5924 5923 5921 5919 5918 5917 5916 5915 5914 5911 5911 5911 5910 5909 5909 5908 5908 5908 5908 5909 5909 5910 5911 5909 5909 5910 5911 5912 5913 5913 5913 5913 5913 5913 5914 5914 5914 5914 5914 5914 5914 5914 5914 5914 5914 5914 5914 5914 5914 5914 5913 5913 5913 5912 5912 5911 5911 5910 5909 5908 5907 5906 5905 5904 5903 5903 5902 5901 5900 5899 5898 5898 5897 5897 5896 5895 5895 5894 5894 5894 5893 5892 5891 5890 5890
5935 5935 5941 5942 5940 5938 5936 5934 5932 5930 5928 5927 5925 5923 5921 5920 5918 5917 5917 5916 5914 5913 5912 5912 5911 5909 5909 5910 5910 5910 5909 5910 5909 5911 5911 5909 5909 5910 5911 5913 5913 5913 5913 5913 5912 5913 5913 5913 5913 5913 5913 5913 5913 5913 5913 5913 5913 5913 5913 5913 5913 5913 5912 5912 5912 5912 5911 5911 5910 5909 5908 5907 5907 5906 5905 5904 5903 5902 5901 5901 5900 5899 5898 5897 5897 5896 5896 5895 5894 5894 5893 5893 5893 5892 5891 5891 5890
5938 5940 5945 5945 5943 5940 5938 5936 5934 5932 5930 5928 5927 5925 5922 5920 5919 5918 5916 5915 5914 5914 5913 5912 5911 5909 5908 5909 5910 5911 5911 5911 5910 5909 5909 5909 5911 5911 5912 5913 5912 5912 5912 5912 5912 5911 5911 5912 5912 5912 5912 5912 5912 5912 5912 5912 5912 5912 5912 5912 5912 5912 5912 5911 5911 5911 5911 5910 5909 5908 5908 5907 5906 5905 5904 5903 5902 5901 5900 5900 5899 5898 5897 5897 5896 5896 5895 5895 5894 5893 5892 5892 5892 5892 5891 5891 5890
5942 5946 5948 5947 5945 5942 5940 5939 5937 5934 5932 5930 5929 5927 5924 5921 5920 5919 5916 5914 5914 5914 5913 5911 5910 5909 5909 5908 5908 5908 5910 5911 5909 5908 5908 5910 5911 5912 5912 5913 5912 5911 5911 5912 5911 5911 5911 5911 5911 5911 5911 5911 5911 5911 5911 5911 5911 5911 5911 5911 5911 5911 5911 5911 5910 5910 5910 5908 5907 5906 5906 5905 5905 5904 5903 5902 5901 5900 5899 5898 5898 5897 5897 5896 5895 5895 5894 5894 5894 5893 5892 5892 5891 5892 5891 5891 5890
5948 5949 5950 5948 5945 5942 5941 5940 5939 5937 5934 5932 5931 5929 5926 5924 5922 5920 5918 5915 5914 5913 5912 5910 5907 5907 5909 5909 5909 5908 5909 5909 5908 5908 5908 5909 5910 5912 5913 5913 5912 5910 5910 5910 5910 5910 5910 5910 5909 5909 5909 5909 5909 5909 5909 5910 5910 5910 5910 5910 5910 5910 5910 5910 5909 5909 5907 5906 5904 5904 5904 5904 5903 5902 5901 5900 5900 5899 5898 5897 5896 5896 5895 5895 5895 5894 5894 5894 5893 5893 5892 5892 5891 5891 5891 5891 5890
5951 5951 5950 5948 5944 5943 5942 5941 5940 5938 5936 5935 5933 5930 5928 5926 5923 5921 5919 5915 5914 5913 5912 5910 5907 5907 5909 5910 5910 5910 5909 5908 5908 5908 5909 5909 5910 5911 5912 5913 5912 5911 5910 5910 5909 5909 5909 5909 5908 5908 5908 5908 5908 5908 5908 5909 5909 5909 5909 5909 5909 5909 5908 5908 5907 5906 5905 5904 5903 5903 5903 5902 5901 5900 5900 5899 5899 5898 5898 5897 5896 5895 5894 5894 5894 5894 5893 5893 5893 5892 5892 5892 5891 5891 5890 5891 5891
5952 5951 5950 5948 5944 5943 5942 5941 5941 5940 5938 5936 5934 5931 5930 5928 5925 5923 5920 5917 5916 5915 5913 5910 5909 5909 5909 5910 5910 5910 5910 5909 5909 5909 5909 5910 5910 5910 5911 5912 5912 5912 5911 5910 5909 5908 5908 5908 5908 5907 5907 5907 5908 5908 5908 5908 5908 5909 5908 5908 5907 5907 5907 5906 5905 5904 5903 5902 5902 5902 5901 5900 5900 5899 5898 5898 5898 5897 5897 5897 5896 5895 5893 5892 5892 5892 5892 5892 5892 5892 5892 5892 5891 5890 5890 5890 5891
5952 5952 5949 5947 5945 5943 5942 5941 5942 5941 5939 5937 5935 5933 5931 5929 5927 5925 5922 5921 5919 5917 5914 5912 5911 5911 5911 5912 5911 5910 5910 5910 5910 5910 5910 5910 5910 5910 5910 5910 5911 5912 5912 5911 5909 5909 5909 5910 5909 5908 5907 5908 5908 5908 5908 5908 5908 5908 5907 5906 5905 5905 5904 5904 5903 5902 5901 5901 5900 5900 5899 5898 5898 5897 5897 5896 5896 5896 5896 5896 5895 5894 5893 5892 5891 5891 5891 5891 5891 5892 5891 5891 5891 5890 5889 5890 5890
5953 5952 5949 5948 5947 5945 5943 5941 5942 5942 5940 5939 5937 5935 5933 5930 5929 5927 5925 5924 5922 5919 5917 5915 5914 5914 5914 5914 5913 5912 5912 5911 5911 5911 5910 5910 5909 5910 5910 5909 5910 5910 5911 5910 5910 5911 5912 5911 5910 5909 5908 5908 5907 5906 5907 5907 5907 5907 5906 5904 5903 5903 5903 5902 5901 5900 5900 5899 5898 5898 5896 5896 5896 5896 5895 5894 5894 5894 5894 5894 5893 5893 5892 5891 5890 5890 5890 5890 5890 5891 5891 5891 5890 5889 5889 5889 5889
5954 5953 5951 5949 5948 5947 5945 5943 5942 5942 5941 5940 5938 5936 5935 5933 5931 5929 5928 5927 5924 5921 5920 5918 5917 5916 5916 5916 5915 5914 5913 5912 5912 5911 5911 5909 5909 5909 5909 5910 5910 5910 5910 5910 5911 5912 5912 5911 5909 5908 5907 5907 5906 5906 5906 5906 5906 5906 5906 5904 5903 5902 5901 5900 5899 5898 5898 5897 5897 5896 5895 5894 5895 5894 5893 5894 5894 5893 5892 5892 5892 5892 5891 5890 5889 5889 5889 5889 5889 5890 5890 5890 5890 5889 5888 5888 5888
5956 5955 5953 5951 5950 5949 5947 5945 5944 5943 5942 5940 5938 5938 5938 5936 5933 5931 5930 5929 5926 5924 5922 5921 5919 5918 5918 5917 5916 5915 5915 5913 5912 5912 5911 5910 5909 5909 5909 5910 5911 5911 5911 5910 5910 5910 5909 5909 5908 5907 5907 5906 5905 5905 5905 5905 5905 5905 5905 5903 5902 5901 5900 5899 5899 5897 5897 5896 5896 5895 5894 5893 5893 5892 5892 5893 5893 5891 5891 5891 5891 5890 5889 5889 5888 5888 5888 5888 5888 5889 5889 5889 5889 5889 5888 5888 5888
5955 5955 5955 5954 5952 5950 5948 5947 5945 5944 5943 5941 5940 5940 5939 5938 5935 5933 5932 5930 5928 5926 5924 5923 5922 5921 5920 5919 5918 5917 5916 5914 5913 5913 5912 5911 5910 5909 5910 5911 5911 5911 5910 5908 5907 5906 5906 5906 5906 5905 5905 5904 5904 5904 5903 5903 5903 5903 5903 5902 5901 5900 5899 5899 5898 5897 5896 5895 5894 5894 5893 5892 5891 5890 5890 5891 5891 5889 5889 5889 5889 5888 5888 5888 5887 5886 5886 5887 5887 5887 5888 5888 5888 5888 5888 5888 5887
5955 5955 5956 5955 5954 5951 5949 5947 5945 5945 5945 5943 5942 5941 5940 5939 5937 5935 5934 5931 5930 5928 5926 5925 5924 5923 5922 5921 5920 5918 5917 5916 5915 5914 5912 5911 5911 5911 5911 5912 5912 5910 5908 5905 5904 5904 5904 5905 5905 5904 5904 5903 5903 5903 5903 5902 5902 5901 5901 5900 5899 5898 5898 5897 5897 5896 5894 5894 5893 5893 5892 5891 5890 5890 5889 5889 5888 5887 5886 5886 5887 5887 5886 5886 5886 5885 5885 5885 5885 5885 5886 5886 5886 5887 5887 5887 5887
5954 5954 5955 5955 5954 5952 5950 5949 5947 5945 5945 5945 5945 5943 5941 5939 5937 5937 5935 5933 5931 5929 5928 5927 5925 5925 5924 5923 5921 5919 5918 5917 5916 5915 5914 5913 5912 5913 5913 5913 5911 5909 5907 5905 5905 5904 5903 5904 5904 5904 5903 5903 5903 5902 5902 5901 5901 5900 5899 5898 5898 5898 5897 5895 5895 5894 5893 5892 5892 5891 5891 5890 5889 5889 5888 5888 5886 5885 5885 5885 5885 5885 5884 5884 5884 5883 5883 5883 5883 5884 5885 5885 5885 5885 5885 5885 5886
5952 5953 5953 5954 5954 5953 5951 5950 5949 5947 5946 5946 5945 5945 5943 5941 5939 5938 5936 5934 5931 5929 5929 5928 5926 5926 5925 5924 5923 5921 5920 5919 5918 5917 5915 5914 5913 5913 5913 5912 5910 5909 5908 5907 5906 5905 5903 5903 5904 5903 5902 5902 5902 5902 5901 5901 5900 5899 5898 5897 5896 5896 5895 5894 5893 5893 5891 5891 5890 5889 5889 5888 5888 5888 5887 5886 5884 5884 5885 5884 5883 5883 5882 5882 5882 5881 5882 5882 5882 5882 5883 5883 5883 5884 5884 5884 5884
5950 5952 5953 5954 5953 5953 5952 5952 5951 5949 5947 5946 5946 5946 5945 5943 5940 5938 5937 5935 5933 5931 5930 5929 5928 5926 5926 5926 5924 5923 5922 5921 5920 5918 5916 5915 5914 5913 5913 5911 5909 5908 5908 5908 5907 5906 5905 5904 5904 5903 5902 5902 5902 5902 5901 5900 5899 5898 5896 5895 5894 5895 5894 5893 5892 5891 5890 5889 5888 5887 5886 5886 5886 5885 5885 5884 5883 5883 5883 5882 5882 5881 5880 5880 5880 5880 5880 5881 5881 5881 5881 5882 5882 5882 5883 5883 5883
5949 5951 5953 5954 5953 5953 5953 5953 5952 5951 5949 5947 5946 5946 5946 5944 5941 5940 5938 5936 5935 5933 5932 5931 5930 5928 5927 5927 5926 5925 5924 5922 5921 5919 5918 5916 5915 5914 5913 5912 5910 5908 5909 5908 5907 5906 5905 5904 5903 5903 5902 5901 5901 5900 5900 5898 5897 5896 5895 5894 5893 5893 5893 5892 5892 5891 5889 5887 5887 5886 5885 5884 5883 5883 5883 5883 5882 5882 5882 5881 5880 5880 5880 5879 5879 5879 5878 5879 5879 5879 5879 5880 5880 5881 5881 5882 5883
5951 5950 5952 5953 5953 5953 5954 5954 5953 5952 5951 5949 5947 5945 5945 5944 5941 5940 5939 5938 5936 5935 5935 5934 5931 5929 5927 5927 5927 5926 5924 5923 5922 5920 5918 5917 5916 5916 5915 5913 5911 5909 5909 5909 5908 5906 5905 5904 5903 5902 5901 5900 5900 5899 5898 5897 5896 5895 5894 5894 5893 5893 5892 5891 5890 5889 5888 5887 5886 5885 5884 5882 5881 5881 5881 5881 5881 5880 5879 5879 5878 5878 5879 5878 5878 5877 5877 5877 5877 5877 5878 5878 5878 5879 5880 5881 5881
5954 5952 5952 5953 5954 5954 5955 5954 5953 5953 5952 5950 5947 5945 5944 5942 5941 5940 5939 5938 5937 5937 5937 5936 5934 5932 5929 5928 5928 5927 5926 5923 5922 5921 5919 5918 5917 5917 5916 5914 5912 5911 5910 5910 5909 5907 5906 5905 5903 5902 5901 5900 5899 5898 5898 5896 5895 5894 5893 5893 5893 5892 5891 5889 5887 5887 5887 5885 5884 5884 5882 5881 5880 5879 5879 5879 5878 5878 5878 5878 5877 5877 5878 5877 5876 5876 5876 5875 5876 5876 5876 5877 5877 5877 5878 5879 5880
5956 5955 5954 5954 5955 5955 5954 5953 5953 5953 5953 5951 5949 5946 5944 5942 5940 5939 5938 5938 5938 5938 5938 5938 5937 5935 5932 5930 5929 5929 5927 5924 5922 5921 5920 5919 5919 5919 5918 5916 5914 5913 5912 5911 5909 5908 5907 5906 5904 5902 5900 5899 5899 5898 5898 5896 5895 5893 5892 5892 5892 5891 5890 5888 5887 5887 5886 5884 5883 5882 5881 5879 5878 5878 5878 5878 5877 5877 5877 5877 5877 5876 5876 5876 5875 5875 5875 5875 5875 5875 5875 5875 5876 5876 5877 5877 5878
5958 5957 5956 5956 5956 5954 5954 5953 5953 5953 5953 5952 5950 5947 5945 5943 5941 5939 5938 5938 5938 5939 5939 5939 5938 5936 5934 5932 5930 5929 5928 5926 5924 5922 5920 5920 5920 5920 5919 5918 5915 5913 5912 5911 5909 5908 5907 5906 5904 5902 5900 5899 5898 5897 5897 5896 5894 5892 5892 5892 5892 5891 5889 5888 5887 5886 5884 5883 5883 5881 5879 5878 5877 5877 5877 5877 5877 5876 5876 5876 5875 5875 5875 5874 5874 5874 5873 5873 5874 5874 5874 5873 5874 5874 5875 5876 5876
5959 5958 5957 5957 5955 5954 5953 5953 5953 5953 5952 5952 5951 5948 5946 5945 5942 5940 5939 5938 5938 5939 5939 5938 5938 5936 5934 5932 5930 5929 5928 5927 5925 5922 5920 5919 5919 5919 5919 5917 5914 5912 5910 5909 5908 5907 5906 5905 5904 5902 5901 5900 5898 5897 5896 5895 5893 5892 5891 5892 5891 5890 5888 5887 5886 5885 5884 5883 5881 5880 5879 5878 5877 5876 5876 5876 5876 5876 5875 5874 5874 5874 5873 5873 5872 5872 5872 5872 5872 5873 5872 5872 5872 5873 5874 5874 5875
5959 5958 5956 5955 5954 5954 5952 5952 5952 5951 5951 5951 5950 5949 5947 5945 5943 5941 5939 5938 5937 5937 5937 5937 5936 5935 5933 5931 5929 5928 5928 5927 5926 5923 5920 5918 5917 5919 5920 5917 5912 5910 5909 5907 5907 5906 5905 5904 5904 5903 5902 5900 5899 5897 5896 5894 5893 5892 5891 5891 5891 5889 5887 5886 5885 5884 5883 5882 5880 5879 5879 5878 5877 5877 5876 5876 5875 5875 5874 5873 5873 5872 5872 5871 5871 5870 5870 5870 5871 5872 5871 5871 5871 5871 5872 5872 5873
5958 5957 5954 5953 5953 5953 5952 5951 5950 5950 5950 5950 5949 5949 5947 5945 5943 5941 5940 5938 5937 5936 5935 5935 5934 5933 5932 5931 5929 5927 5927 5926 5924 5922 5919 5917 5917 5920 5922 5919 5914 5912 5909 5907 5907 5906 5904 5903 5903 5902 5902 5900 5899 5898 5896 5895 5893 5892 5892 5891 5891 5889 5887 5886 5885 5884 5883 5881 5880 5880 5879 5878 5877 5877 5877 5876 5876 5875 5873 5872 5871 5870 5870 5869 5869 5869 5869 5869 5869 5870 5870 5870 5870 5870 5871 5871 5871
5957 5956 5953 5952 5952 5953 5951 5950 5949 5949 5949 5948 5949 5948 5947 5945 5943 5942 5941 5938 5937 5935 5934 5933 5932 5931 5931 5930 5929 5927 5925 5924 5923 5921 5919 5918 5918 5920 5922 5920 5916 5913 5911 5909 5908 5907 5905 5904 5903 5902 5901 5900 5899 5898 5896 5895 5893 5893 5892 5891 5891 5889 5887 5886 5885 5884 5883 5882 5881 5880 5879 5878 5877 5876 5876 5876 5876 5875 5873 5871 5870 5869 5868 5868 5868 5868 5868 5867 5867 5867 5867 5868 5868 5868 5869 5869 5869
5955 5954 5953 5952 5952 5952 5951 5949 5948 5948 5948 5947 5948 5947 5947 5945 5944 5943 5941 5939 5937 5935 5934 5932 5931 5930 5930 5929 5929 5927 5926 5925 5923 5920 5920 5919 5918 5918 5919 5918 5915 5912 5911 5911 5910 5908 5906 5904 5903 5902 5901 5900 5899 5898 5896 5895 5893 5892 5891 5891 5890 5889 5887 5886 5885 5884 5884 5883 5882 5880 5879 5877 5877 5875 5875 5875 5874 5873 5872 5871 5870 5869 5868 5868 5868 5868 5867 5866 5866 5865 5865 5866 5866 5866 5866 5867 5867
5953 5953 5953 5952 5951 5951 5951 5949 5948 5947 5948 5948 5947 5947 5947 5946 5945 5943 5941 5939 5937 5935 5934 5932 5931 5929 5929 5929 5929 5929 5928 5927 5924 5921 5920 5919 5918 5917 5917 5916 5914 5912 5911 5910 5910 5909 5907 5905 5903 5902 5901 5900 5899 5898 5897 5895 5894 5892 5891 5890 5889 5888 5887 5886 5885 5884 5883 5883 5882 5880 5877 5877 5877 5876 5875 5874 5873 5872 5871 5871 5870 5869 5868 5868 5868 5868 5867 5865 5865 5864 5864 5865 5865 5865 5865 5865 5865
5952 5952 5953 5953 5952 5951 5950 5950 5948 5948 5948 5948 5947 5947 5946 5946 5945 5943 5940 5939 5937 5935 5934 5933 5932 5930 5930 5929 5928 5928 5928 5927 5925 5922 5920 5918 5917 5916 5915 5915 5914 5911 5909 5909 5909 5910 5908 5906 5904 5901 5900 5900 5899 5898 5896 5895 5894 5892 5891 5889 5888 5887 5886 5885 5885 5884 5883 5882 5880 5877 5876 5876 5876 5875 5874 5872 5871 5870 5870 5870 5870 5869 5868 5868 5867 5867 5866 5865 5864 5864 5863 5863 5863 5863 5864 5864 5864
5952 5952 5953 5954 5954 5952 5950 5949 5948 5947 5947 5947 5946 5947 5946 5945 5944 5941 5939 5938 5936 5934 5933 5933 5933 5931 5930 5928 5927 5925 5924 5924 5923 5921 5919 5917 5916 5914 5914 5914 5914 5910 5907 5906 5906 5908 5908 5907 5905 5902 5900 5899 5898 5897 5896 5894 5893 5892 5890 5889 5887 5886 5885 5884 5884 5883 5883 5881 5878 5875 5874 5874 5874 5872 5871 5871 5870 5871 5872 5871 5869 5869 5869 5868 5867 5867 5865 5864 5863 5862 5862 5861 5861 5862 5862 5862 5863
5951 5951 5952 5952 5954 5953 5951 5949 5947 5946 5945 5945 5946 5947 5946 5945 5943 5941 5939 5938 5936 5933 5933 5933 5933 5931 5929 5927 5925 5923 5921 5921 5919 5917 5916 5914 5914 5913 5912 5912 5912 5910 5907 5905 5904 5905 5905 5905 5903 5900 5899 5899 5898 5896 5895 5893 5892 5891 5889 5887 5886 5885 5884 5884 5883 5883 5883 5882 5879 5876 5873 5872 5871 5871 5872 5873 5873 5873 5873 5871 5869 5869 5868 5868 5867 5866 5865 5863 5862 5860 5860 5859 5859 5860 5861 5861 5861
5949 5950 5950 5951 5953 5953 5952 5951 5949 5947 5946 5944 5945 5946 5946 5944 5943 5941 5940 5938 5935 5934 5934 5933 5932 5930 5928 5926 5924 5921 5920 5918 5916 5914 5913 5911 5911 5910 5910 5910 5909 5909 5909 5907 5906 5905 5905 5905 5903 5899 5898 5898 5897 5896 5894 5892 5891 5889 5888 5886 5884 5883 5883 5883 5882 5882 5882 5882 5879 5877 5875 5873 5873 5873 5873 5873 5872 5870 5870 5869 5869 5868 5868 5867 5866 5864 5863 5862 5860 5860 5859 5858 5857 5858 5860 5860 5860
5947 5948 5950 5951 5952 5951 5950 5950 5949 5948 5946 5944 5945 5945 5944 5943 5942 5941 5939 5937 5934 5933 5933 5933 5931 5930 5928 5925 5923 5921 5919 5916 5912 5911 5911 5910 5909 5909 5907 5906 5906 5906 5907 5907 5907 5907 5908 5908 5905 5900 5899 5898 5897 5895 5893 5891 5890 5888 5886 5885 5884 5882 5881 5881 5881 5881 5881 5881 5880 5878 5876 5874 5873 5873 5871 5870 5868 5867 5867 5867 5867 5867 5867 5866 5864 5863 5862 5861 5860 5859 5858 5857 5857 5858 5858 5858 5858
5946 5948 5949 5950 5950 5949 5948 5947 5946 5945 5944 5944 5945 5945 5943 5943 5941 5940 5938 5936 5934 5933 5933 5932 5930 5929 5927 5924 5922 5921 5918 5914 5911 5911 5911 5910 5908 5907 5905 5903 5903 5903 5904 5905 5904 5905 5906 5905 5901 5898 5897 5896 5894 5892 5890 5889 5887 5885 5884 5883 5882 5881 5879 5878 5878 5878 5878 5878 5877 5876 5874 5873 5871 5870 5869 5867 5867 5866 5866 5866 5866 5865 5865 5864 5863 5862 5861 5860 5859 5858 5857 5856 5857 5857 5857 5856 5856
5945 5946 5948 5949 5948 5947 5946 5946 5944 5943 5944 5944 5945 5944 5943 5942 5940 5938 5936 5935 5933 5932 5932 5931 5929 5928 5926 5923 5921 5920 5918 5914 5911 5910 5910 5908 5907 5906 5904 5903 5903 5902 5902 5902 5900 5900 5900 5898 5895 5893 5892 5892 5891 5890 5888 5887 5885 5883 5882 5880 5879 5878 5877 5876 5875 5874 5874 5874 5874 5873 5872 5871 5870 5868 5867 5866 5866 5866 5865 5865 5864 5864 5863 5862 5861 5860 5859 5858 5857 5857 5856 5855 5855 5856 5855 5854 5854
5944 5945 5946 5947 5946 5945 5945 5944 5944 5943 5944 5944 5943 5942 5942 5940 5939 5937 5935 5934 5933 5932 5931 5930 5928 5926 5924 5922 5920 5919 5917 5914 5911 5909 5908 5906 5906 5905 5904 5903 5903 5901 5901 5901 5898 5897 5896 5894 5892 5891 5890 5890 5889 5888 5887 5886 5884 5883 5881 5879 5878 5876 5875 5874 5873 5872 5871 5871 5871 5871 5870 5870 5869 5868 5867 5866 5865 5865 5864 5863 5863 5862 5861 5860 5859 5858 5857 5857 5856 5856 5855 5854 5854 5854 5853 5853 5853
5944 5944 5945 5945 5944 5944 5944 5943 5942 5942 5942 5941 5941 5941 5940 5938 5937 5936 5934 5933 5933 5932 5930 5928 5927 5925 5923 5921 5919 5917 5916 5913 5911 5908 5907 5905 5903 5902 5901 5902 5901 5900 5900 5900 5898 5897 5896 5894 5892 5890 5890 5889 5888 5888 5887 5885 5884 5882 5880 5878 5877 5876 5874 5873 5872 5871 5870 5869 5869 5868 5868 5868 5867 5866 5866 5865 5865 5864 5863 5862 5862 5861 5860 5859 5858 5857 5856 5855 5855 5854 5854 5853 5852 5851 5851 5851 5851
5942 5943 5943 5943 5943 5943 5943 5942 5941 5940 5940 5939 5939 5939 5938 5937 5935 5934 5933 5933 5932 5930 5928 5926 5925 5923 5921 5920 5918 5916 5914 5912 5910 5908 5906 5905 5902 5900 5899 5900 5900 5899 5900 5899 5898 5896 5895 5893 5891 5890 5889 5888 5887 5886 5885 5884 5883 5881 5879 5877 5876 5875 5873 5872 5871 5870 5869 5868 5867 5867 5866 5866 5865 5865 5864 5863 5863 5862 5862 5861 5860 5859 5858 5857 5857 5856 5855 5854 5853 5852 5851 5851 5850 5849 5849 5849 5848
5942 5941 5941 5941 5942 5942 5941 5940 5940 5939 5938 5938 5937 5937 5936 5935 5934 5933 5932 5931 5930 5929 5927 5924 5923 5921 5920 5918 5916 5915 5913 5911 5909 5907 5905 5904 5902 5901 5900 5900 5899 5899 5899 5897 5896 5895 5893 5892 5890 5888 5887 5886 5885 5884 5883 5882 5880 5879 5877 5876 5874 5873 5872 5871 5870 5868 5867 5866 5866 5865 5864 5863 5863 5862 5862 5861 5860 5860 5859 5858 5858 5857 5856 5855 5854 5853 5852 5852 5850 5849 5849 5848 5847 5847 5846 5846 5846
5941 5941 5941 5941 5941 5941 5940 5939 5938 5937 5937 5936 5935 5934 5933 5933 5932 5932 5931 5930 5928 5927 5925 5923 5921 5919 5918 5917 5915 5913 5911 5909 5907 5905 5904 5902 5901 5900 5900 5899 5899 5898 5897 5895 5893 5892 5891 5890 5888 5886 5884 5883 5883 5882 5881 5879 5878 5877 5875 5874 5873 5871 5870 5869 5868 5866 5865 5864 5863 5862 5861 5861 5860 5859 5859 5858 5857 5857 5856 5855 5854 5854 5853 5852 5851 5850 5849 5849 5848 5847 5846 5845 5845 5844 5844 5843 5843
5941 5941 5940 5940 5940 5940 5939 5938 5936 5935 5934 5934 5932 5932 5931 5931 5931 5930 5929 5928 5926 5925 5924 5921 5919 5917 5916 5915 5914 5912 5910 5908 5906 5904 5903 5901 5900 5899 5898 5898 5897 5896 5894 5893 5891 5890 5889 5887 5886 5884 5882 5880 5880 5879 5878 5877 5876 5874 5873 5872 5870 5869 5868 5867 5865 5864 5862 5861 5860 5859 5858 5857 5856 5856 5855 5854 5854 5853 5852 5851 5850 5849 5849 5848 5848 5847 5846 5845 5845 5845 5844 5843 5842 5841 5841 5840 5840
5939 5939 5939 5939 5939 5938 5936 5935 5933 5932 5932 5932 5931 5930 5929 5928 5928 5928 5927 5925 5924 5922 5921 5919 5917 5915 5914 5913 5912 5910 5908 5907 5905 5903 5902 5900 5899 5898 5897 5896 5895 5893 5892 5890 5889 5888 5887 5885 5883 5881 5879 5877 5876 5876 5875 5874 5873 5872 5870 5869 5867 5866 5865 5863 5862 5861 5859 5858 5857 5856 5854 5853 5852 5852 5851 5850 5850 5848 5848 5847 5846 5845 5844 5844 5843 5843 5842 5842 5841 5841 5841 5840 5840 5838 5837 5837 5836
5938 5938 5937 5937 5936 5934 5932 5932 5931 5930 5930 5930 5929 5928 5927 5926 5925 5925 5924 5923 5921 5920 5918 5916 5914 5912 5911 5910 5908 5907 5906 5905 5904 5902 5900 5899 5898 5896 5895 5894 5892 5890 5889 5888 5887 5886 5884 5883 5881 5879 5876 5874 5873 5873 5872 5871 5870 5868 5867 5865 5864 5862 5861 5860 5858 5857 5856 5854 5853 5852 5850 5849 5848 5847 5846 5846 5845 5844 5843 5842 5842 5841 5840 5839 5838 5838 5838 5837 5837 5837 5837 5836 5836 5835 5834 5833 5832
5937 5937 5935 5934 5933 5931 5930 5931 5930 5929 5929 5929 5929 5927 5926 5925 5924 5923 5921 5919 5918 5916 5914 5912 5910 5909 5908 5906 5904 5903 5903 5902 5901 5899 5898 5897 5895 5894 5892 5890 5889 5887 5887 5885 5884 5883 5881 5880 5878 5876 5874 5873 5871 5870 5869 5867 5866 5864 5863 5861 5859 5858 5856 5855 5853 5852 5851 5850 5848 5847 5846 5845 5843 5842 5841 5840 5839 5839 5838 5837 5836 5836 5835 5834 5833 5833 5832 5832 5832 5832 5832 5831 5831 5831 5830 5829 5828
5935 5935 5933 5932 5931 5930 5930 5930 5929 5928 5928 5928 5928 5927 5925 5924 5923 5921 5919 5916 5914 5912 5910 5908 5907 5905 5904 5903 5902 5900 5899 5898 5897 5896 5895 5894 5893 5891 5889 5888 5886 5885 5884 5883 5881 5880 5878 5876 5875 5873 5872 5870 5869 5867 5865 5864 5862 5860 5858 5856 5854 5853 5851 5850 5849 5847 5846 5844 5843 5842 5841 5840 5838 5837 5836 5835 5834 5833 5832 5832 5831 5830 5830 5829 5829 5828 5827 5827 5827 5827 5826 5826 5826 5825 5825 5825 5824